FW9830 Weather Reports


Display with metric or nautical units.
time (UTC)temp
F
wind
direction
speed
MPH
gust
MPH
rain 1hr
in
rain 24hr
in
rain mn
in
humidity
%
barometer
mb
20260506211204 52 313 20.0 24.0 0.00 0.00 0.00 43 1013.8
20260506210701 50 314 14.0 18.0 0.00 0.00 0.00 45 1013.8
20260506210158 50 312 13.0 20.0 0.00 0.00 0.00 47 1013.9
20260506205655 50 305 14.0 21.0 0.00 0.00 0.00 45 1014.1
20260506205150 51 325 13.0 19.0 0.00 0.00 0.00 48 1014.1
20260506204648 50 302 11.0 15.0 0.00 0.00 0.00 47 1013.9
20260506204144 51 322 10.0 11.0 0.00 0.00 0.00 45 1013.9
20260506203643 50 341 7.0 15.0 0.00 0.00 0.00 47 1013.9
20260506203139 50 304 11.0 15.0 0.00 0.00 0.00 47 1014.0
20260506202638 50 356 9.0 12.0 0.00 0.00 0.00 46 1013.9
20260506202133 50 318 9.0 14.0 0.00 0.00 0.00 48 1014.1
20260506201630 50 349 6.0 11.0 0.00 0.00 0.00 48 1013.9
20260506201127 50 328 7.0 18.0 0.00 0.00 0.00 48 1014.4
20260506200623 50 270 7.0 15.0 0.00 0.00 0.00 48 1014.3
20260506200120 50 308 18.0 19.0 0.00 0.00 0.00 48 1014.3
20260506195617 50 312 15.0 20.0 0.00 0.00 0.00 49 1014.4
20260506195113 50 321 10.0 15.0 0.00 0.00 0.00 49 1014.3
20260506194611 50 322 8.0 12.0 0.00 0.00 0.00 46 1014.1
20260506194107 50 274 5.0 10.0 0.00 0.00 0.00 50 1014.4
20260506193605 49 274 5.0 15.0 0.00 0.00 0.00 48 1014.5
20260506193102 50 247 4.0 11.0 0.00 0.00 0.00 50 1014.5
20260506192559 50 298 6.0 9.0 0.00 0.00 0.00 49 1014.4
20260506192055 50 247 7.0 11.0 0.00 0.00 0.00 53 1014.1
20260506191551 48 254 8.0 14.0 0.00 0.00 0.00 51 1014.3
20260506191047 50 204 5.0 9.0 0.00 0.00 0.00 50 1014.5
20260506190545 49 242 14.0 14.0 0.00 0.00 0.00 52 1014.5
20260506190042 50 237 18.0 18.0 0.00 0.00 0.00 51 1014.6
20260506185539 49 257 8.0 13.0 0.00 0.00 0.00 52 1014.4
20260506185035 49 258 3.0 7.0 0.00 0.00 0.00 49 1014.3
20260506184533 50 258 8.0 13.0 0.00 0.00 0.00 51 1014.1
20260506184030 50 248 9.0 17.0 0.00 0.00 0.00 51 1014.5
20260506183526 50 335 13.0 13.0 0.00 0.00 0.00 50 1014.6
20260506183023 49 299 8.0 14.0 0.00 0.00 0.00 50 1014.5
20260506182520 50 315 15.0 15.0 0.00 0.00 0.00 49 1014.3
20260506182017 51 295 7.0 15.0 0.00 0.00 0.00 49 1014.3
20260506181515 50 304 8.0 22.0 0.00 0.00 0.00 48 1014.3
20260506181012 50 326 8.0 11.0 0.00 0.00 0.00 50 1014.3
20260506180508 50 319 8.0 13.0 0.00 0.00 0.00 49 1014.4
20260506180005 50 332 11.0 19.0 0.00 0.00 0.00 51 1014.4
20260506175501 48 300 7.0 7.0 0.00 0.00 0.00 50 1014.4
20260506174958 48 259 6.0 18.0 0.00 0.00 0.00 51 1014.6
20260506174456 49 322 7.0 12.0 0.00 0.00 0.00 52 1014.8
20260506173952 49 320 9.0 17.0 0.00 0.00 0.00 52 1014.9
20260506173450 48 351 6.0 10.0 0.00 0.00 0.00 53 1014.8
20260506172946 48 337 7.0 14.0 0.00 0.00 0.00 52 1015.0
20260506172444 48 322 6.0 13.0 0.00 0.00 0.00 53 1015.0
20260506171940 48 14 4.0 12.0 0.00 0.00 0.00 54 1015.0
20260506171438 49 341 8.0 11.0 0.00 0.00 0.00 54 1015.0
20260506170935 49 298 13.0 14.0 0.00 0.00 0.00 53 1014.9
20260506170431 49 245 7.0 15.0 0.00 0.00 0.00 55 1015.0
20260506165931 48 307 5.0 11.0 0.00 0.00 0.00 51 1015.0
20260506165429 48 252 6.0 11.0 0.00 0.00 0.00 54 1015.3
20260506164924 47 233 6.0 11.0 0.00 0.00 0.00 57 1014.9
20260506164420 47 305 9.0 10.0 0.00 0.00 0.00 55 1015.1
20260506163914 47 341 5.0 10.0 0.00 0.00 0.00 60 1015.2
20260506163408 47 345 3.0 5.0 0.00 0.00 0.00 57 1015.0
20260506162903 46 303 9.0 14.0 0.00 0.00 0.00 57 1015.0
20260506162401 47 318 9.0 12.0 0.00 0.00 0.00 59 1015.1
20260506161858 46 315 3.0 8.0 0.00 0.00 0.00 59 1015.0
20260506161356 46 297 6.0 9.0 0.00 0.00 0.00 59 1015.0
20260506160853 47 82 0.0 3.0 0.00 0.00 0.00 59 1015.3
20260506160350 46 359 5.0 9.0 0.00 0.00 0.00 61 1015.3
20260506155848 48 354 3.0 11.0 0.00 0.00 0.00 61 1015.0
20260506155344 46 266 5.0 14.0 0.00 0.00 0.00 61 1015.2
20260506153502 46 0 2.0 5.0 0.00 0.00 0.00 62 1015.2
20260506153000 46 335 6.0 10.0 0.00 0.00 0.00 65 1015.4
20260506152456 45 339 3.0 4.0 0.00 0.00 0.00 65 1015.3
20260506151954 46 344 5.0 7.0 0.00 0.00 0.00 65 1015.3
20260506151452 46 7 3.0 5.0 0.00 0.00 0.00 67 1015.1
20260506150949 46 304 4.0 9.0 0.00 0.00 0.00 65 1015.2
20260506150445 46 215 5.0 7.0 0.00 0.00 0.00 65 1015.0
20260506145942 45 175 1.0 5.0 0.00 0.00 0.00 67 1015.0
20260506145438 45 331 0.0 5.0 0.00 0.00 0.00 67 1015.2
20260506144936 45 251 3.0 6.0 0.00 0.00 0.00 68 1014.7
20260506144432 45 212 1.0 5.0 0.00 0.00 0.00 68 1014.9
20260506143931 45 211 3.0 5.0 0.00 0.00 0.00 68 1015.0
20260506143427 44 185 3.0 5.0 0.00 0.00 0.00 69 1015.0
20260506142926 43 219 3.0 6.0 0.00 0.00 0.00 70 1014.9
20260506142424 45 225 3.0 3.0 0.00 0.00 0.00 70 1014.7
20260506141921 44 150 4.0 4.0 0.00 0.00 0.00 73 1014.9
20260506141419 44 120 3.0 6.0 0.00 0.00 0.00 73 1014.8
20260506140917 43 72 4.0 5.0 0.00 0.00 0.00 75 1014.9
20260506140414 43 185 3.0 5.0 0.00 0.00 0.00 76 1014.9
20260506135911 43 154 4.0 7.0 0.00 0.00 0.00 75 1014.9
20260506135408 43 81 4.0 7.0 0.00 0.00 0.00 76 1014.9
20260506134904 42 94 7.0 7.0 0.00 0.00 0.00 77 1014.9
20260506134400 42 90 1.0 5.0 0.00 0.00 0.00 78 1014.8
20260506133857 42 92 4.0 7.0 0.00 0.00 0.00 78 1014.8
20260506133354 42 66 3.0 5.0 0.00 0.00 0.00 79 1014.8
20260506132850 42 88 5.0 6.0 0.00 0.00 0.00 80 1014.8
20260506132348 41 103 5.0 6.0 0.00 0.00 0.00 79 1014.8
20260506131846 42 90 0.0 4.0 0.00 0.00 0.00 79 1015.0
20260506131342 41 34 3.0 5.0 0.00 0.00 0.00 80 1014.8
20260506130839 41 66 3.0 6.0 0.00 0.00 0.00 81 1014.9
20260506130335 41 26 3.0 5.0 0.00 0.00 0.00 81 1014.7
20260506125833 40 125 5.0 7.0 0.00 0.00 0.00 82 1014.5
20260506125332 41 85 5.0 7.0 0.00 0.00 0.00 82 1014.4
20260506124830 41 103 4.0 6.0 0.00 0.00 0.00 82 1014.5
20260506124326 40 90 4.0 6.0 0.00 0.00 0.00 84 1014.3
20260506123824 39 103 4.0 6.0 0.00 0.00 0.00 86 1014.4
20260506123322 38 90 2.0 6.0 0.00 0.00 0.00 89 1014.3
20260506122819 37 145 3.0 7.0 0.00 0.00 0.00 91 1014.1
20260506122316 37 139 5.0 9.0 0.00 0.00 0.00 91 1013.8
20260506121814 36 141 8.0 10.0 0.00 0.00 0.00 92 1013.8
20260506121311 36 142 7.0 9.0 0.00 0.00 0.00 92 1013.8
20260506120808 36 134 6.0 9.0 0.00 0.00 0.00 92 1013.8
20260506120306 35 132 8.0 9.0 0.00 0.00 0.00 92 1013.7
20260506115803 36 138 7.0 9.0 0.00 0.00 0.00 92 1013.8
20260506115301 35 141 5.0 7.0 0.00 0.00 0.00 92 1013.7
20260506114759 35 155 5.0 7.0 0.00 0.00 0.00 93 1013.6
20260506114256 35 138 7.0 9.0 0.00 0.00 0.00 93 1013.9
20260506113754 35 147 8.0 9.0 0.00 0.00 0.00 93 1013.9
20260506113252 35 131 4.0 7.0 0.00 0.00 0.00 93 1013.7
20260506112748 35 159 6.0 7.0 0.00 0.00 0.00 94 1014.1
20260506112246 34 164 6.0 6.0 0.00 0.00 0.00 94 1014.0
20260506111743 33 139 4.0 5.0 0.00 0.00 0.00 94 1014.0
20260506111241 33 143 4.0 5.0 0.00 0.00 0.00 94 1013.8
20260506110737 33 137 4.0 5.0 0.00 0.00 0.00 94 1013.6
20260506110235 33 141 5.0 7.0 0.00 0.00 0.00 94 1013.5
20260506105732 33 118 3.0 5.0 0.00 0.00 0.00 94 1013.6
20260506105229 33 131 3.0 5.0 0.00 0.00 0.00 94 1013.5
20260506104727 33 134 4.0 6.0 0.00 0.00 0.00 94 1013.5
20260506104224 33 137 5.0 5.0 0.00 0.00 0.00 93 1013.0
20260506103721 33 134 5.0 5.0 0.00 0.00 0.00 93 1013.5
20260506103218 33 129 3.0 3.0 0.00 0.00 0.00 93 1013.4
20260506102716 33 135 2.0 3.0 0.00 0.00 0.00 93 1013.6
20260506102214 33 99 2.0 3.0 0.00 0.00 0.00 93 1013.5
20260506101710 33 106 0.0 2.0 0.00 0.00 0.00 93 1013.6
20260506101207 33 32 0.0 3.0 0.00 0.00 0.00 93 1013.4
20260506100705 33 90 2.0 2.0 0.00 0.00 0.00 93 1013.2
20260506100203 33 110 2.0 4.0 0.00 0.00 0.00 93 1013.4
20260506095701 33 114 1.0 2.0 0.00 0.00 0.00 92 1013.3
20260506095157 32 87 4.0 5.0 0.00 0.00 0.00 92 1013.2
20260506094655 34 133 3.0 3.0 0.00 0.00 0.00 92 1013.1
20260506094153 33 100 2.0 3.0 0.00 0.00 0.00 92 1013.3
20260506093651 33 123 3.0 3.0 0.00 0.00 0.00 92 1013.1
20260506093148 33 82 2.0 7.0 0.00 0.00 0.00 91 1013.2
20260506092645 34 171 2.0 3.0 0.00 0.00 0.00 90 1013.1
20260506092143 34 195 3.0 4.0 0.00 0.00 0.00 91 1013.4
20260506091640 34 172 3.0 3.0 0.00 0.00 0.00 91 1013.4
20260506091138 34 163 2.0 2.0 0.00 0.00 0.00 91 1013.0
20260506090636 34 127 2.0 3.0 0.00 0.00 0.00 90 1013.3
20260506090132 35 152 2.0 3.0 0.00 0.00 0.00 90 1013.2
20260506085629 35 140 3.0 3.0 0.00 0.00 0.00 91 1013.1
20260506085125 34 157 3.0 3.0 0.00 0.00 0.00 91 1012.9
20260506084622 34 169 4.0 4.0 0.00 0.00 0.00 91 1013.0
20260506084118 33 40 0.0 1.0 0.00 0.00 0.00 90 1013.4
20260506083615 34 16 0.0 3.0 0.00 0.00 0.00 90 1013.3
20260506083113 34 90 1.0 2.0 0.00 0.00 0.00 90 1013.3
20260506082609 34 132 2.0 4.0 0.00 0.00 0.00 90 1013.0
20260506082105 34 123 3.0 3.0 0.00 0.00 0.00 90 1013.1
20260506081604 34 111 3.0 4.0 0.00 0.00 0.00 90 1013.1
20260506081101 34 144 4.0 4.0 0.00 0.00 0.00 90 1012.9
20260506080558 34 138 3.0 4.0 0.00 0.00 0.00 89 1012.8
20260506073038 35 112 3.0 5.0 0.00 0.00 0.00 81 1013.0
20260506072536 35 139 2.0 6.0 0.00 0.00 0.00 79 1012.7
20260506072033 36 104 4.0 6.0 0.00 0.00 0.00 78 1012.6
20260506071531 36 126 0.0 2.0 0.00 0.00 0.00 78 1012.6
20260506071028 36 132 2.0 2.0 0.00 0.00 0.00 76 1012.5
20260506070525 36 127 0.0 2.0 0.00 0.00 0.00 78 1012.4
20260506062503 37 160 1.0 2.0 0.00 0.00 0.00 68 1012.9
20260506061959 37 165 0.0 2.0 0.00 0.00 0.00 72 1012.8
20260506061455 37 117 2.0 2.0 0.00 0.00 0.00 72 1012.7
20260506060953 38 175 1.0 2.0 0.00 0.00 0.00 67 1012.5
20260506060451 38 197 3.0 3.0 0.00 0.00 0.00 65 1012.7
20260506050920 39 255 0.0 0.0 0.00 0.00 0.00 64 1012.5
20260506050418 40 255 0.0 0.0 0.00 0.00 0.00 63 1012.6
20260506044908 40 259 2.0 2.0 0.00 0.00 0.00 64 1012.7
20260506044406 39 254 0.0 1.0 0.00 0.00 0.00 65 1012.4
20260506043903 38 240 0.0 0.0 0.00 0.00 0.00 67 1012.6
20260506043400 39 240 0.0 0.0 0.00 0.00 0.00 66 1012.5
20260506042858 40 240 1.0 2.0 0.00 0.00 0.00 63 1012.3
20260506042357 40 236 2.0 2.0 0.00 0.00 0.00 63 1012.5
20260506041855 41 233 0.0 2.0 0.00 0.00 0.00 62 1012.5
20260506041354 40 220 1.0 2.0 0.00 0.00 0.00 61 1012.6
20260506040849 41 228 2.0 2.0 0.00 0.00 0.00 60 1012.4
20260506040347 42 234 1.0 2.0 0.00 0.00 0.00 58 1012.4
20260506035842 42 243 1.0 2.0 0.00 0.00 0.00 57 1012.3
20260506035340 41 240 2.0 2.0 0.00 0.00 0.00 59 1012.5
20260506034837 41 254 0.0 0.0 0.00 0.00 0.00 59 1012.6
20260506034334 41 254 0.0 0.0 0.00 0.00 0.00 59 1012.6
20260506033831 42 254 0.0 0.0 0.00 0.00 0.00 58 1012.6
20260506033328 42 254 0.0 2.0 0.00 0.00 0.00 56 1012.4
20260506032825 42 254 0.0 0.0 0.00 0.00 0.00 57 1012.7
20260506032322 42 345 0.0 0.0 0.00 0.00 0.00 56 1012.3
20260506031819 43 353 0.0 3.0 0.00 0.00 0.00 55 1012.6
20260506031316 44 349 0.0 1.0 0.00 0.00 0.00 53 1012.4
20260506030814 44 311 1.0 2.0 0.00 0.00 0.00 53 1012.4
20260506030311 44 351 2.0 4.0 0.00 0.00 0.00 52 1012.4
20260506025808 44 342 2.0 4.0 0.00 0.00 0.00 52 1012.5
20260506025306 44 303 3.0 3.0 0.00 0.00 0.00 53 1012.4
20260506024802 44 335 3.0 5.0 0.00 0.00 0.00 52 1012.1
20260506024258 44 353 5.0 5.0 0.00 0.00 0.00 51 1012.2
20260506023754 45 341 6.0 6.0 0.00 0.00 0.00 50 1012.1
20260506023252 44 339 5.0 6.0 0.00 0.00 0.00 51 1012.2
20260506022748 45 347 4.0 8.0 0.00 0.00 0.00 51 1012.2
20260506022246 45 351 5.0 6.0 0.00 0.00 0.00 50 1012.1
20260506021744 45 338 6.0 8.0 0.00 0.00 0.00 50 1011.8
20260506021241 45 341 5.0 9.0 0.00 0.00 0.00 49 1011.9
20260506020737 45 344 6.0 8.0 0.00 0.00 0.00 50 1011.9
20260506020235 46 339 6.0 9.0 0.00 0.00 0.00 49 1011.9
20260506015732 46 328 6.0 8.0 0.00 0.00 0.00 49 1011.8
20260506015230 46 321 8.0 11.0 0.00 0.00 0.00 48 1011.8
20260506014727 46 341 5.0 8.0 0.00 0.00 0.00 48 1011.7
20260506014223 46 339 11.0 14.0 0.00 0.00 0.00 47 1011.5
20260506013720 46 335 7.0 10.0 0.00 0.00 0.00 47 1011.5
20260506013218 46 354 5.0 12.0 0.00 0.00 0.00 46 1011.1
20260506012713 46 343 7.0 13.0 0.00 0.00 0.00 46 1011.1
20260506012211 46 338 5.0 11.0 0.00 0.00 0.00 45 1011.2
20260506011708 46 338 7.0 14.0 0.00 0.00 0.00 45 1011.2
20260506011204 47 339 9.0 14.0 0.00 0.00 0.00 45 1011.0
20260506010703 46 344 7.0 9.0 0.00 0.00 0.00 45 1010.8
20260506010200 47 341 7.0 14.0 0.00 0.00 0.00 44 1011.1
20260506005657 47 355 8.0 17.0 0.00 0.00 0.00 43 1011.1
20260506005153 47 323 11.0 13.0 0.00 0.00 0.00 44 1010.9
20260506004649 48 334 10.0 17.0 0.00 0.00 0.00 43 1011.2
20260506004147 48 350 7.0 16.0 0.00 0.00 0.00 44 1010.8
20260506003643 48 332 10.0 17.0 0.00 0.00 0.00 43 1010.7
20260506003139 48 330 14.0 20.0 0.00 0.00 0.00 43 1011.0
20260506002635 48 0 6.0 18.0 0.00 0.00 0.00 44 1010.7
20260506002132 49 339 9.0 19.0 0.00 0.00 0.00 43 1010.9
20260506001627 48 346 10.0 16.0 0.00 0.00 0.00 43 1010.8
20260506001125 48 322 7.0 13.0 0.00 0.00 0.00 44 1010.8
20260506000622 49 340 12.0 22.0 0.00 0.00 0.00 43 1010.8
20260506000119 49 359 11.0 14.0 0.00 0.00 0.00 43 1010.8
20260505235618 49 331 11.0 16.0 0.00 0.00 0.00 43 1010.9
20260505235114 49 336 21.0 21.0 0.00 0.00 0.00 43 1010.7
20260505234611 49 337 9.0 26.0 0.00 0.00 0.00 41 1010.8
20260505234108 50 353 11.0 19.0 0.00 0.00 0.00 42 1010.4
20260505233606 49 338 11.0 16.0 0.00 0.00 0.00 41 1010.6
20260505233103 50 324 8.0 17.0 0.00 0.00 0.00 41 1010.6
20260505232601 50 312 13.0 21.0 0.00 0.00 0.00 43 1010.5
20260505232058 50 331 5.0 20.0 0.00 0.00 0.00 41 1010.3
20260505231554 50 340 15.0 17.0 0.00 0.00 0.00 41 1010.3
20260505231053 50 353 9.0 19.0 0.00 0.00 0.00 42 1010.4
20260505230550 50 349 12.0 20.0 0.00 0.00 0.00 41 1010.5
20260505230046 51 342 17.0 22.0 0.00 0.00 0.00 40 1010.4
20260505225543 51 299 15.0 24.0 0.00 0.00 0.00 40 1010.2
20260505225039 52 320 6.0 15.0 0.00 0.00 0.00 41 1010.0
20260505224537 52 334 13.0 30.0 0.00 0.00 0.00 41 1010.3
20260505224034 52 338 9.0 20.0 0.00 0.00 0.00 40 1009.8
20260505223531 51 333 9.0 24.0 0.00 0.00 0.00 41 1009.9
20260505223027 52 338 8.0 15.0 0.00 0.00 0.00 41 1009.8
20260505222523 51 337 10.0 27.0 0.00 0.00 0.00 41 1010.0
20260505222019 52 323 11.0 19.0 0.00 0.00 0.00 39 1009.8
20260505221517 51 320 15.0 28.0 0.00 0.00 0.00 39 1010.0
20260505221013 52 316 12.0 21.0 0.00 0.00 0.00 39 1009.9
20260505220511 53 308 15.0 24.0 0.00 0.00 0.00 39 1009.8
20260505220009 52 313 19.0 19.0 0.00 0.00 0.00 39 1009.5
20260505215506 52 328 11.0 19.0 0.00 0.00 0.00 40 1009.9
20260505215004 52 336 13.0 21.0 0.00 0.00 0.00 40 1009.8
20260505214502 52 328 16.0 24.0 0.00 0.00 0.00 39 1009.6
20260505213958 53 345 11.0 28.0 0.00 0.00 0.00 40 1009.8
20260505213456 53 304 15.0 24.0 0.00 0.00 0.00 40 1009.7
20260505212952 53 299 22.0 29.0 0.00 0.00 0.00 40 1009.5
20260505212449 53 316 17.0 24.0 0.00 0.00 0.00 41 1009.7
20260505211945 53 335 13.0 17.0 0.00 0.00 0.00 38 1009.6